Year,Month,Day,Hour,Minute,Value (Times are PST for temperature in C)
2009,01,19,00,00,-0.80
2009,01,19,00,01,-0.80
2009,01,19,00,02,-0.80
2009,01,19,00,03,-0.80
2009,01,19,00,04,-0.80
2009,01,19,00,05,-0.80
2009,01,19,00,06,-0.80
2009,01,19,00,07,-0.80
2009,01,19,00,08,-0.80
2009,01,19,00,09,-0.80
2009,01,19,00,10,-0.80
2009,01,19,00,11,-0.80
2009,01,19,00,12,-0.80
2009,01,19,00,13,-0.80
2009,01,19,00,14,-0.80
2009,01,19,00,15,-0.80
2009,01,19,00,16,-0.80
2009,01,19,00,17,-0.80
2009,01,19,00,18,-0.80
2009,01,19,00,19,-0.80
2009,01,19,00,20,-0.90
2009,01,19,00,21,-0.90
2009,01,19,00,22,-0.90
2009,01,19,00,23,-0.90
2009,01,19,00,24,-0.90
2009,01,19,00,25,-0.90
2009,01,19,00,26,-0.90
2009,01,19,00,27,-0.90
2009,01,19,00,28,-1.00
2009,01,19,00,29,-1.10
2009,01,19,00,30,-1.10
2009,01,19,00,31,-1.10
2009,01,19,00,32,-1.10
2009,01,19,00,33,-1.10
2009,01,19,00,34,-1.10
2009,01,19,00,35,-1.10
2009,01,19,00,36,-1.10
2009,01,19,00,37,-1.00
2009,01,19,00,38,-1.00
2009,01,19,00,39,-1.00
2009,01,19,00,40,-1.00
2009,01,19,00,41,-0.90
2009,01,19,00,42,-0.90
2009,01,19,00,43,-0.90
2009,01,19,00,44,-0.90
2009,01,19,00,45,-0.90
2009,01,19,01,02,-0.80
2009,01,19,01,03,-0.80
2009,01,19,01,04,-0.80
2009,01,19,01,05,-0.80
2009,01,19,01,06,-0.80
2009,01,19,01,07,-0.80
2009,01,19,01,08,-0.80
2009,01,19,01,09,-0.80
2009,01,19,01,10,-0.80
2009,01,19,01,11,-0.80
2009,01,19,01,12,-0.80
2009,01,19,01,13,-0.80
2009,01,19,01,14,-0.80
2009,01,19,01,15,-0.80
2009,01,19,01,16,-0.80
2009,01,19,01,17,-0.80
2009,01,19,01,18,-0.80
2009,01,19,01,19,-0.80
2009,01,19,01,20,-0.80
2009,01,19,01,21,-0.80
2009,01,19,01,22,-0.80
2009,01,19,01,23,-0.80
2009,01,19,01,24,-0.80
2009,01,19,01,25,-0.80
2009,01,19,01,26,-0.80
2009,01,19,01,27,-0.80
2009,01,19,01,28,-0.80
2009,01,19,01,29,-0.80
2009,01,19,01,30,-0.80
2009,01,19,01,31,-0.80
2009,01,19,01,32,-0.90
2009,01,19,01,33,-0.90
2009,01,19,01,34,-0.90
2009,01,19,01,35,-0.90
2009,01,19,01,36,-0.90
2009,01,19,01,37,-0.90
2009,01,19,01,38,-0.90
2009,01,19,01,39,-0.90
2009,01,19,01,40,-0.90
2009,01,19,01,41,-1.00
2009,01,19,01,42,-1.00
2009,01,19,01,43,-1.00
2009,01,19,01,44,-1.00
2009,01,19,01,45,-1.00
2009,01,19,01,46,-1.00
2009,01,19,01,47,-1.00
2009,01,19,01,48,-1.00
2009,01,19,01,49,-1.10
2009,01,19,01,50,-1.10
2009,01,19,01,51,-1.10
2009,01,19,01,52,-1.10
2009,01,19,01,53,-1.10
2009,01,19,01,54,-1.10
2009,01,19,01,55,-1.10
2009,01,19,01,56,-1.10
2009,01,19,01,57,-1.10
2009,01,19,01,58,-1.10
2009,01,19,01,59,-1.10
2009,01,19,02,00,-1.10
2009,01,19,02,01,-1.10
2009,01,19,02,02,-1.10
2009,01,19,02,03,-1.10
2009,01,19,02,04,-1.10
2009,01,19,02,05,-1.10
2009,01,19,02,06,-1.20
2009,01,19,02,07,-1.20
2009,01,19,02,08,-1.20
2009,01,19,02,09,-1.20
2009,01,19,02,10,-1.20
2009,01,19,02,11,-1.20
2009,01,19,02,12,-1.20
2009,01,19,02,13,-1.20
2009,01,19,02,14,-1.20
2009,01,19,02,15,-1.20
2009,01,19,02,16,-1.20
2009,01,19,02,17,-1.30
2009,01,19,02,18,-1.30
2009,01,19,02,19,-1.30
2009,01,19,02,20,-1.20
2009,01,19,02,21,-1.30
2009,01,19,02,22,-1.30
2009,01,19,02,23,-1.30
2009,01,19,02,24,-1.30
2009,01,19,02,25,-1.20
2009,01,19,02,26,-1.20
2009,01,19,02,27,-1.20
2009,01,19,02,28,-1.20
2009,01,19,02,29,-1.20
2009,01,19,02,30,-1.20
2009,01,19,02,31,-1.20
2009,01,19,02,32,-1.20
2009,01,19,02,33,-1.20
2009,01,19,02,34,-1.20
2009,01,19,02,35,-1.20
2009,01,19,02,36,-1.30
2009,01,19,02,37,-1.30
2009,01,19,02,38,-1.20
2009,01,19,02,39,-1.20
2009,01,19,02,40,-1.30
2009,01,19,02,41,-1.30
2009,01,19,02,42,-1.30
2009,01,19,02,43,-1.30
2009,01,19,02,44,-1.30
2009,01,19,02,45,-1.30
2009,01,19,02,46,-1.30
2009,01,19,02,47,-1.30
2009,01,19,02,48,-1.30
2009,01,19,02,49,-1.20
2009,01,19,02,50,-1.20
2009,01,19,02,51,-1.20
2009,01,19,02,52,-1.20
2009,01,19,02,53,-1.20
2009,01,19,02,54,-1.20
2009,01,19,02,55,-1.20
2009,01,19,02,56,-1.20
2009,01,19,02,57,-1.20
2009,01,19,02,58,-1.20
2009,01,19,02,59,-1.20
2009,01,19,03,00,-1.20
2009,01,19,03,01,-1.20
2009,01,19,03,02,-1.20
2009,01,19,03,03,-1.20
2009,01,19,03,04,-1.20
2009,01,19,03,05,-1.20
2009,01,19,03,06,-1.20
2009,01,19,03,07,-1.20
2009,01,19,03,08,-1.20
2009,01,19,03,09,-1.20
2009,01,19,03,10,-1.20
2009,01,19,03,11,-1.20
2009,01,19,03,12,-1.20
2009,01,19,03,13,-1.20
2009,01,19,03,14,-1.20
2009,01,19,03,15,-1.20
2009,01,19,03,16,-1.20
2009,01,19,03,17,-1.20
2009,01,19,03,18,-1.20
2009,01,19,03,19,-1.20
2009,01,19,03,20,-1.20
2009,01,19,03,21,-1.20
2009,01,19,03,22,-1.20
2009,01,19,03,23,-1.20
2009,01,19,03,24,-1.20
2009,01,19,03,25,-1.20
2009,01,19,03,26,-1.20
2009,01,19,03,27,-1.20
2009,01,19,03,28,-1.20
2009,01,19,03,29,-1.20
2009,01,19,03,30,-1.20
2009,01,19,03,31,-1.20
2009,01,19,03,32,-1.20
2009,01,19,03,33,-1.20
2009,01,19,03,34,-1.20
2009,01,19,03,35,-1.20
2009,01,19,03,36,-1.20
2009,01,19,03,37,-1.20
2009,01,19,03,38,-1.20
2009,01,19,03,39,-1.20
2009,01,19,03,40,-1.20
2009,01,19,03,41,-1.20
2009,01,19,03,42,-1.20
2009,01,19,03,43,-1.20
2009,01,19,03,44,-1.20
2009,01,19,03,45,-1.20
2009,01,19,03,46,-1.20
2009,01,19,03,47,-1.20
2009,01,19,03,48,-1.20
2009,01,19,03,49,-1.20
2009,01,19,03,50,-1.20
2009,01,19,03,51,-1.20
2009,01,19,03,52,-1.20
2009,01,19,03,53,-1.20
2009,01,19,03,54,-1.20
2009,01,19,03,55,-1.20
2009,01,19,03,56,-1.20
2009,01,19,03,57,-1.20
2009,01,19,03,58,-1.20
2009,01,19,03,59,-1.20
2009,01,19,04,00,-1.20
2009,01,19,04,01,-1.20
2009,01,19,04,02,-1.20
2009,01,19,04,03,-1.20
2009,01,19,04,04,-1.20
2009,01,19,04,05,-1.20
2009,01,19,04,06,-1.20
2009,01,19,04,07,-1.20
2009,01,19,04,08,-1.30
2009,01,19,04,09,-1.30
2009,01,19,04,10,-1.30
2009,01,19,04,11,-1.30
2009,01,19,04,12,-1.30
2009,01,19,04,13,-1.30
2009,01,19,04,14,-1.30
2009,01,19,04,15,-1.30
2009,01,19,04,16,-1.30
2009,01,19,04,17,-1.30
2009,01,19,04,18,-1.30
2009,01,19,04,19,-1.30
2009,01,19,04,20,-1.30
2009,01,19,04,21,-1.30
2009,01,19,04,22,-1.30
2009,01,19,04,23,-1.30
2009,01,19,04,24,-1.30
2009,01,19,04,25,-1.30
2009,01,19,04,26,-1.30
2009,01,19,04,27,-1.30
2009,01,19,04,28,-1.30
2009,01,19,04,29,-1.30
2009,01,19,04,30,-1.30
2009,01,19,04,31,-1.30
2009,01,19,04,32,-1.30
2009,01,19,04,33,-1.30
2009,01,19,04,34,-1.30
2009,01,19,04,35,-1.30
2009,01,19,04,36,-1.30
2009,01,19,04,37,-1.30
2009,01,19,04,38,-1.30
2009,01,19,04,39,-1.30
2009,01,19,04,40,-1.30
2009,01,19,04,41,-1.40
2009,01,19,04,42,-1.40
2009,01,19,04,43,-1.40
2009,01,19,04,44,-1.40
2009,01,19,04,45,-1.40
2009,01,19,04,46,-1.40
2009,01,19,04,47,-1.40
2009,01,19,04,48,-1.40
2009,01,19,04,49,-1.50
2009,01,19,04,50,-1.50
2009,01,19,04,51,-1.50
2009,01,19,04,52,-1.50
2009,01,19,04,53,-1.50
2009,01,19,04,54,-1.50
2009,01,19,04,55,-1.60
2009,01,19,04,56,-1.60
2009,01,19,04,57,-1.60
2009,01,19,04,58,-1.60
2009,01,19,04,59,-1.50
2009,01,19,05,00,-1.50
2009,01,19,05,01,-1.50
2009,01,19,05,02,-1.50
2009,01,19,05,03,-1.50
2009,01,19,05,04,-1.40
2009,01,19,05,05,-1.40
2009,01,19,05,06,-1.40
2009,01,19,05,07,-1.40
2009,01,19,05,08,-1.40
2009,01,19,05,09,-1.40
2009,01,19,05,10,-1.40
2009,01,19,05,11,-1.40
2009,01,19,05,12,-1.40
2009,01,19,05,13,-1.40
2009,01,19,05,14,-1.40
2009,01,19,05,15,-1.30
2009,01,19,05,16,-1.30
2009,01,19,05,17,-1.30
2009,01,19,05,18,-1.30
2009,01,19,05,19,-1.30
2009,01,19,05,20,-1.40
2009,01,19,05,21,-1.40
2009,01,19,05,22,-1.40
2009,01,19,05,23,-1.40
2009,01,19,05,24,-1.40
2009,01,19,05,25,-1.50
2009,01,19,05,26,-1.50
2009,01,19,05,27,-1.50
2009,01,19,05,28,-1.60
2009,01,19,05,29,-1.60
2009,01,19,05,30,-1.60
2009,01,19,05,31,-1.60
2009,01,19,05,32,-1.60
2009,01,19,05,33,-1.70
2009,01,19,05,34,-1.70
2009,01,19,05,35,-1.70
2009,01,19,05,36,-1.70
2009,01,19,05,37,-1.70
2009,01,19,05,38,-1.70
2009,01,19,05,39,-1.60
2009,01,19,05,40,-1.60
2009,01,19,05,41,-1.60
2009,01,19,05,42,-1.60
2009,01,19,05,43,-1.60
2009,01,19,05,44,-1.60
2009,01,19,05,45,-1.60
2009,01,19,05,46,-1.60
2009,01,19,05,47,-1.60
2009,01,19,05,48,-1.60
2009,01,19,05,49,-1.60
2009,01,19,05,50,-1.60
2009,01,19,05,51,-1.60
2009,01,19,05,52,-1.60
2009,01,19,05,53,-1.60
2009,01,19,05,54,-1.60
2009,01,19,05,55,-1.60
2009,01,19,05,56,-1.60
2009,01,19,05,57,-1.60
2009,01,19,05,58,-1.60
2009,01,19,05,59,-1.60
2009,01,19,06,00,-1.60
2009,01,19,06,01,-1.60
2009,01,19,06,02,-1.60
2009,01,19,06,03,-1.60
2009,01,19,06,04,-1.60
2009,01,19,06,05,-1.60
2009,01,19,06,06,-1.60
2009,01,19,06,07,-1.60
2009,01,19,06,08,-1.70
2009,01,19,06,09,-1.70
2009,01,19,06,10,-1.70
2009,01,19,06,11,-1.70
2009,01,19,06,12,-1.70
2009,01,19,06,13,-1.70
2009,01,19,06,14,-1.70
2009,01,19,06,15,-1.70
2009,01,19,06,16,-1.70
2009,01,19,06,17,-1.70
2009,01,19,06,18,-1.70
2009,01,19,06,19,-1.70
2009,01,19,06,20,-1.70
2009,01,19,06,21,-1.70
2009,01,19,06,22,-1.70
2009,01,19,06,23,-1.70
2009,01,19,06,24,-1.70
2009,01,19,06,25,-1.70
2009,01,19,06,26,-1.80
2009,01,19,06,27,-1.80
2009,01,19,06,28,-1.80
2009,01,19,06,29,-1.80
2009,01,19,06,30,-1.80
2009,01,19,06,31,-1.80
2009,01,19,06,32,-1.80
2009,01,19,06,33,-1.80
2009,01,19,06,34,-1.80
2009,01,19,06,35,-1.80
2009,01,19,06,36,-1.80
2009,01,19,06,37,-1.80
2009,01,19,06,38,-1.80
2009,01,19,06,39,-1.70
2009,01,19,06,40,-1.70
2009,01,19,06,41,-1.70
2009,01,19,06,42,-1.70
2009,01,19,06,43,-1.70
2009,01,19,06,44,-1.70
2009,01,19,06,45,-1.70
2009,01,19,06,46,-1.70
2009,01,19,06,47,-1.70
2009,01,19,06,48,-1.60
2009,01,19,06,49,-1.60
2009,01,19,06,50,-1.60
2009,01,19,06,51,-1.60
2009,01,19,06,52,-1.60
2009,01,19,06,53,-1.60
2009,01,19,06,54,-1.60
2009,01,19,06,55,-1.60
2009,01,19,06,56,-1.60
2009,01,19,06,57,-1.60
2009,01,19,06,58,-1.60
2009,01,19,06,59,-1.70
2009,01,19,07,00,-1.70
2009,01,19,07,01,-1.70
2009,01,19,07,02,-1.70
2009,01,19,07,03,-1.70
2009,01,19,07,04,-1.70
2009,01,19,07,05,-1.80
2009,01,19,07,06,-1.80
2009,01,19,07,07,-1.80
2009,01,19,07,08,-1.80
2009,01,19,07,09,-1.80
2009,01,19,07,10,-1.80
2009,01,19,07,11,-1.80
2009,01,19,07,12,-1.80
2009,01,19,07,13,-1.80
2009,01,19,07,14,-1.80
2009,01,19,07,15,-1.80
2009,01,19,07,16,-1.80
2009,01,19,07,17,-1.80
2009,01,19,07,18,-1.80
2009,01,19,07,19,-1.80
2009,01,19,07,20,-1.80
2009,01,19,07,21,-1.80
2009,01,19,07,22,-1.80
2009,01,19,07,23,-1.80
2009,01,19,07,24,-1.80
2009,01,19,07,25,-1.80
2009,01,19,07,26,-1.80
2009,01,19,07,27,-1.80
2009,01,19,07,28,-1.80
2009,01,19,07,29,-1.80
2009,01,19,07,30,-1.80
2009,01,19,07,31,-1.80
2009,01,19,07,32,-1.80
2009,01,19,07,33,-1.80
2009,01,19,07,34,-1.90
2009,01,19,07,35,-1.90
2009,01,19,07,36,-1.90
2009,01,19,07,37,-1.90
2009,01,19,07,38,-1.90
2009,01,19,07,39,-1.90
2009,01,19,07,40,-1.90
2009,01,19,07,41,-1.90
2009,01,19,07,42,-1.90
2009,01,19,07,43,-1.90
2009,01,19,07,44,-1.90
2009,01,19,07,45,-1.90
2009,01,19,07,46,-1.90
2009,01,19,07,47,-1.90
2009,01,19,07,48,-1.90
2009,01,19,07,49,-1.80
2009,01,19,07,50,-1.80
2009,01,19,07,51,-1.80
2009,01,19,07,52,-1.80
2009,01,19,07,53,-1.80
2009,01,19,07,54,-1.80
2009,01,19,07,55,-1.80
2009,01,19,07,56,-1.80
2009,01,19,07,57,-1.80
2009,01,19,07,58,-1.80
2009,01,19,07,59,-1.70
2009,01,19,08,00,-1.70
2009,01,19,08,01,-1.70
2009,01,19,08,02,-1.70
2009,01,19,08,03,-1.80
2009,01,19,08,04,-1.80
2009,01,19,08,05,-1.80
2009,01,19,08,06,-1.80
2009,01,19,08,07,-1.80
2009,01,19,08,08,-1.80
2009,01,19,08,09,-1.80
2009,01,19,08,10,-1.90
2009,01,19,08,11,-1.90
2009,01,19,08,12,-1.90
2009,01,19,08,13,-1.90
2009,01,19,08,14,-1.90
2009,01,19,08,15,-1.80
2009,01,19,08,16,-1.80
2009,01,19,08,17,-1.80
2009,01,19,08,18,-1.80
2009,01,19,08,19,-1.80
2009,01,19,08,20,-1.80
2009,01,19,08,21,-1.70
2009,01,19,08,22,-1.70
2009,01,19,08,23,-1.70
2009,01,19,08,24,-1.70
2009,01,19,08,25,-1.70
2009,01,19,08,26,-1.70
2009,01,19,08,27,-1.60
2009,01,19,08,28,-1.60
2009,01,19,08,29,-1.60
2009,01,19,08,30,-1.60
2009,01,19,08,31,-1.50
2009,01,19,08,32,-1.50
2009,01,19,08,33,-1.40
2009,01,19,08,34,-1.40
2009,01,19,08,35,-1.40
2009,01,19,08,36,-1.40
2009,01,19,08,37,-1.30
2009,01,19,08,38,-1.30
2009,01,19,08,39,-1.30
2009,01,19,08,40,-1.30
2009,01,19,08,41,-1.30
2009,01,19,08,42,-1.30
2009,01,19,08,43,-1.30
2009,01,19,08,44,-1.30
2009,01,19,08,45,-1.30
2009,01,19,08,46,-1.30
2009,01,19,08,47,-1.30
2009,01,19,08,48,-1.30
2009,01,19,08,49,-1.30
2009,01,19,08,50,-1.30
2009,01,19,08,51,-1.30
2009,01,19,08,52,-1.30
2009,01,19,08,53,-1.30
2009,01,19,08,54,-1.20
2009,01,19,08,55,-1.20
2009,01,19,08,56,-1.20
2009,01,19,08,57,-1.20
2009,01,19,08,58,-1.20
2009,01,19,08,59,-1.10
2009,01,19,09,00,-1.10
2009,01,19,09,01,-1.10
2009,01,19,09,02,-1.10
2009,01,19,09,03,-1.00
2009,01,19,09,04,-1.00
2009,01,19,09,05,-1.00
2009,01,19,09,06,-1.00
2009,01,19,09,07,-1.00
2009,01,19,09,08,-1.00
2009,01,19,09,09,-0.90
2009,01,19,09,10,-0.90
2009,01,19,09,11,-0.90
2009,01,19,09,12,-0.90
2009,01,19,09,13,-0.90
2009,01,19,09,14,-0.80
2009,01,19,09,15,-0.80
2009,01,19,09,16,-0.80
2009,01,19,09,17,-0.70
2009,01,19,09,18,-0.70
2009,01,19,09,19,-0.60
2009,01,19,09,20,-0.60
2009,01,19,09,21,-0.60
2009,01,19,09,22,-0.50
2009,01,19,09,23,-0.50
2009,01,19,09,24,-0.40
2009,01,19,09,25,-0.30
2009,01,19,09,26,-0.30
2009,01,19,09,27,-0.30
2009,01,19,09,28,-0.20
2009,01,19,09,29,-0.20
2009,01,19,09,30,-0.20
2009,01,19,09,31,-0.20
2009,01,19,09,32,-0.20
2009,01,19,09,33,-0.10
2009,01,19,09,34,-0.10
2009,01,19,09,35,0.00
2009,01,19,09,36,0.00
2009,01,19,09,37,0.10
2009,01,19,09,38,0.10
2009,01,19,09,39,0.20
2009,01,19,09,40,0.20
2009,01,19,09,41,0.30
2009,01,19,09,42,0.30
2009,01,19,09,43,0.30
2009,01,19,09,44,0.40
2009,01,19,09,45,0.50
2009,01,19,09,46,0.50
2009,01,19,09,47,0.60
2009,01,19,09,48,0.70
2009,01,19,09,49,0.70
2009,01,19,09,50,0.80
2009,01,19,09,51,0.80
2009,01,19,09,52,0.90
2009,01,19,09,53,0.90
2009,01,19,09,54,1.00
2009,01,19,09,55,1.10
2009,01,19,09,56,1.10
2009,01,19,09,57,1.20
2009,01,19,09,58,1.20
2009,01,19,09,59,1.30
2009,01,19,10,00,1.30
2009,01,19,10,01,1.30
2009,01,19,10,02,1.40
2009,01,19,10,03,1.50
2009,01,19,10,04,1.50
2009,01,19,10,05,1.60
2009,01,19,10,06,1.70
2009,01,19,10,07,1.70
2009,01,19,10,08,1.80
2009,01,19,10,09,1.90
2009,01,19,10,10,1.90
2009,01,19,10,11,2.00
2009,01,19,10,12,2.10
2009,01,19,10,13,2.20
2009,01,19,10,14,2.20
2009,01,19,10,15,2.30
2009,01,19,10,16,2.40
2009,01,19,10,17,2.40
2009,01,19,10,18,2.40
2009,01,19,10,19,2.50
2009,01,19,10,20,2.50
2009,01,19,10,21,2.60
2009,01,19,10,22,2.70
2009,01,19,10,23,2.70
2009,01,19,10,24,2.80
2009,01,19,10,25,2.90
2009,01,19,10,26,3.00
2009,01,19,10,27,3.10
2009,01,19,10,28,3.20
2009,01,19,10,29,3.30
2009,01,19,10,30,3.40
2009,01,19,10,31,3.50
2009,01,19,10,32,3.60
2009,01,19,10,33,3.70
2009,01,19,10,34,3.80
2009,01,19,10,35,3.80
2009,01,19,10,36,3.90
2009,01,19,10,37,4.00
2009,01,19,10,38,4.10
2009,01,19,10,39,4.20
2009,01,19,10,40,4.20
2009,01,19,10,41,4.30
2009,01,19,10,42,4.40
2009,01,19,10,43,4.50
2009,01,19,10,44,4.60
2009,01,19,10,45,4.70
2009,01,19,10,46,4.80
2009,01,19,10,47,4.90
2009,01,19,10,48,5.10
2009,01,19,10,49,5.20
2009,01,19,10,50,5.30
2009,01,19,10,51,5.40
2009,01,19,10,52,5.50
2009,01,19,10,53,5.60
2009,01,19,10,54,5.70
2009,01,19,10,55,5.80
2009,01,19,10,56,5.80
2009,01,19,10,57,5.90
2009,01,19,10,58,6.00
2009,01,19,10,59,6.00
2009,01,19,11,00,6.10
2009,01,19,11,01,6.20
2009,01,19,11,02,6.20
2009,01,19,11,03,6.30
2009,01,19,11,04,6.40
2009,01,19,11,05,6.50
2009,01,19,11,06,6.50
2009,01,19,11,07,6.50
2009,01,19,11,08,6.60
2009,01,19,11,09,6.70
2009,01,19,11,10,6.80
2009,01,19,11,11,6.90
2009,01,19,11,12,7.00
2009,01,19,11,13,7.10
2009,01,19,11,14,7.20
2009,01,19,11,15,7.30
2009,01,19,11,16,7.40
2009,01,19,11,17,7.60
2009,01,19,11,18,7.70
2009,01,19,11,19,7.80
2009,01,19,11,20,7.90
2009,01,19,11,21,7.90
2009,01,19,11,22,8.00
2009,01,19,11,23,8.00
2009,01,19,11,24,8.10
2009,01,19,11,25,8.10
2009,01,19,11,26,8.10
2009,01,19,11,27,8.10
2009,01,19,11,28,8.20
2009,01,19,11,29,8.20
2009,01,19,11,30,8.30
2009,01,19,11,31,8.30
2009,01,19,11,32,8.30
2009,01,19,11,33,8.40
2009,01,19,11,34,8.40
2009,01,19,11,35,8.30
2009,01,19,11,36,8.20
2009,01,19,11,37,8.10
2009,01,19,11,38,8.00
2009,01,19,11,39,7.90
2009,01,19,11,40,7.90
2009,01,19,11,41,7.80
2009,01,19,11,42,7.70
2009,01,19,11,43,7.60
2009,01,19,11,44,7.50
2009,01,19,11,45,7.40
2009,01,19,11,46,7.40
2009,01,19,11,47,7.40
2009,01,19,11,48,7.40
2009,01,19,11,49,7.50
2009,01,19,11,50,7.60
2009,01,19,11,51,7.70
2009,01,19,11,52,7.70
2009,01,19,11,53,7.70
2009,01,19,11,54,7.60
2009,01,19,11,55,7.50
2009,01,19,11,56,7.50
2009,01,19,11,57,7.50
2009,01,19,11,58,7.50
2009,01,19,11,59,7.60
2009,01,19,12,00,7.60
2009,01,19,12,01,7.60
2009,01,19,12,02,7.60
2009,01,19,12,03,7.70
2009,01,19,12,04,7.70
2009,01,19,12,05,7.80
2009,01,19,12,06,7.90
2009,01,19,12,07,8.00
2009,01,19,12,08,8.10
2009,01,19,12,09,8.10
2009,01,19,12,10,8.20
2009,01,19,12,11,8.20
2009,01,19,12,12,8.30
2009,01,19,12,13,8.40
2009,01,19,12,14,8.50
2009,01,19,12,15,8.50
2009,01,19,12,16,8.60
2009,01,19,12,17,8.70
2009,01,19,12,18,8.80
2009,01,19,12,19,8.80
2009,01,19,12,20,8.90
2009,01,19,12,21,9.00
2009,01,19,12,22,9.00
2009,01,19,12,23,9.10
2009,01,19,12,24,9.20
2009,01,19,12,25,9.20
2009,01,19,12,26,9.30
2009,01,19,12,27,9.40
2009,01,19,12,28,9.40
2009,01,19,12,29,9.40
2009,01,19,12,30,9.30
2009,01,19,12,31,9.30
2009,01,19,12,32,9.20
2009,01,19,12,33,9.20
2009,01,19,12,34,9.30
2009,01,19,12,35,9.30
2009,01,19,12,36,9.40
2009,01,19,12,37,9.40
2009,01,19,12,38,9.30
2009,01,19,12,39,9.30
2009,01,19,12,40,9.30
2009,01,19,12,41,9.30
2009,01,19,12,42,9.30
2009,01,19,12,43,9.20
2009,01,19,12,44,9.20
2009,01,19,12,45,9.10
2009,01,19,12,46,9.10
2009,01,19,12,47,9.00
2009,01,19,12,48,8.90
2009,01,19,12,49,8.90
2009,01,19,12,50,9.00
2009,01,19,12,51,9.00
2009,01,19,12,52,9.10
2009,01,19,12,53,9.10
2009,01,19,12,54,9.00
2009,01,19,12,55,9.00
2009,01,19,12,56,8.90
2009,01,19,12,57,8.90
2009,01,19,12,58,8.80
2009,01,19,12,59,8.80
2009,01,19,13,00,8.80
2009,01,19,13,01,8.80
2009,01,19,13,02,8.80
2009,01,19,13,03,8.80
2009,01,19,13,04,8.80
2009,01,19,13,05,8.80
2009,01,19,13,06,8.80
2009,01,19,13,07,8.80
2009,01,19,13,08,8.80
2009,01,19,13,09,8.80
2009,01,19,13,10,8.80
2009,01,19,13,11,8.80
2009,01,19,13,12,8.80
2009,01,19,13,13,8.80
2009,01,19,13,14,8.80
2009,01,19,13,15,8.80
2009,01,19,13,16,8.90
2009,01,19,13,17,8.90
2009,01,19,13,18,8.90
2009,01,19,13,19,8.90
2009,01,19,13,20,8.90
2009,01,19,13,21,8.90
2009,01,19,13,22,8.90
2009,01,19,13,23,8.90
2009,01,19,13,24,8.90
2009,01,19,13,25,8.90
2009,01,19,13,26,8.90
2009,01,19,13,27,8.90
2009,01,19,13,28,8.90
2009,01,19,13,29,8.90
2009,01,19,13,30,8.80
2009,01,19,13,31,8.80
2009,01,19,13,32,8.70
2009,01,19,13,33,8.70
2009,01,19,13,34,8.70
2009,01,19,13,35,8.80
2009,01,19,13,36,8.90
2009,01,19,13,37,8.90
2009,01,19,13,38,9.00
2009,01,19,13,39,9.10
2009,01,19,13,40,9.10
2009,01,19,13,41,9.20
2009,01,19,13,42,9.20
2009,01,19,13,43,9.10
2009,01,19,13,44,9.10
2009,01,19,13,45,9.00
2009,01,19,13,46,8.90
2009,01,19,13,47,8.90
2009,01,19,13,48,8.90
2009,01,19,13,49,8.90
2009,01,19,13,50,9.00
2009,01,19,13,51,8.90
2009,01,19,13,52,8.90
2009,01,19,13,53,8.80
2009,01,19,13,54,8.80
2009,01,19,13,55,8.80
2009,01,19,13,56,8.80
2009,01,19,13,57,8.80
2009,01,19,13,58,8.80
2009,01,19,13,59,8.80
2009,01,19,14,00,8.70
2009,01,19,14,01,8.60
2009,01,19,14,02,8.60
2009,01,19,14,03,8.50
2009,01,19,14,04,8.50
2009,01,19,14,05,8.40
2009,01,19,14,06,8.40
2009,01,19,14,07,8.40
2009,01,19,14,08,8.50
2009,01,19,14,09,8.60
2009,01,19,14,10,8.60
2009,01,19,14,11,8.70
2009,01,19,14,12,8.80
2009,01,19,14,13,8.80
2009,01,19,14,14,8.80
2009,01,19,14,15,8.80
2009,01,19,14,16,8.80
2009,01,19,14,17,8.70
2009,01,19,14,18,8.70
2009,01,19,14,19,8.80
2009,01,19,14,20,8.90
2009,01,19,14,21,9.00
2009,01,19,14,22,9.10
2009,01,19,14,23,9.10
2009,01,19,14,24,9.10
2009,01,19,14,25,9.20
2009,01,19,14,26,9.20
2009,01,19,14,27,9.30
2009,01,19,14,28,9.30
2009,01,19,14,29,9.30
2009,01,19,14,30,9.30
2009,01,19,14,31,9.30
2009,01,19,14,32,9.20
2009,01,19,14,33,9.20
2009,01,19,14,34,9.20
2009,01,19,14,35,9.20
2009,01,19,14,36,9.20
2009,01,19,14,37,9.20
2009,01,19,14,38,9.30
2009,01,19,14,39,9.40
2009,01,19,14,40,9.50
2009,01,19,14,41,9.50
2009,01,19,14,42,9.50
2009,01,19,14,43,9.40
2009,01,19,14,44,9.40
2009,01,19,14,45,9.40
2009,01,19,14,46,9.40
2009,01,19,14,47,9.30
2009,01,19,14,48,9.30
2009,01,19,14,49,9.20
2009,01,19,14,50,9.20
2009,01,19,14,51,9.20
2009,01,19,14,52,9.20
2009,01,19,14,53,9.20
2009,01,19,14,54,9.30
2009,01,19,14,55,9.30
2009,01,19,14,56,9.40
2009,01,19,14,57,9.40
2009,01,19,14,58,9.50
2009,01,19,14,59,9.60
2009,01,19,15,00,9.60
2009,01,19,15,01,9.60
2009,01,19,15,02,9.60
2009,01,19,15,03,9.60
2009,01,19,15,04,9.50
2009,01,19,15,05,9.40
2009,01,19,15,06,9.30
2009,01,19,15,07,9.20
2009,01,19,15,08,9.10
2009,01,19,15,09,9.00
2009,01,19,15,10,9.00
2009,01,19,15,11,8.90
2009,01,19,15,12,8.80
2009,01,19,15,13,8.80
2009,01,19,15,14,8.80
2009,01,19,15,15,8.80
2009,01,19,15,16,8.70
2009,01,19,15,17,8.70
2009,01,19,15,18,8.60
2009,01,19,15,19,8.60
2009,01,19,15,20,8.50
2009,01,19,15,21,8.40
2009,01,19,15,22,8.40
2009,01,19,15,23,8.40
2009,01,19,15,24,8.50
2009,01,19,15,25,8.50
2009,01,19,15,26,8.60
2009,01,19,15,27,8.60
2009,01,19,15,28,8.70
2009,01,19,15,29,8.70
2009,01,19,15,30,8.80
2009,01,19,15,31,8.70
2009,01,19,15,32,8.70
2009,01,19,15,33,8.70
2009,01,19,15,34,8.70
2009,01,19,15,35,8.60
2009,01,19,15,36,8.60
2009,01,19,15,37,8.60
2009,01,19,15,38,8.60
2009,01,19,15,39,8.60
2009,01,19,15,40,8.60
2009,01,19,15,41,8.50
2009,01,19,15,42,8.50
2009,01,19,15,43,8.40
2009,01,19,15,44,8.40
2009,01,19,15,45,8.30
2009,01,19,15,46,8.20
2009,01,19,15,47,8.20
2009,01,19,15,48,8.10
2009,01,19,15,49,8.10
2009,01,19,15,50,8.10
2009,01,19,15,51,8.00
2009,01,19,15,52,8.00
2009,01,19,15,53,8.00
2009,01,19,15,54,7.90
2009,01,19,15,55,7.90
2009,01,19,15,56,7.80
2009,01,19,15,57,7.80
2009,01,19,15,58,7.70
2009,01,19,15,59,7.70
2009,01,19,16,00,7.60
2009,01,19,16,01,7.50
2009,01,19,16,02,7.40
2009,01,19,16,03,7.30
2009,01,19,16,04,7.20
2009,01,19,16,05,7.20
2009,01,19,16,06,7.10
2009,01,19,16,07,7.00
2009,01,19,16,08,7.00
2009,01,19,16,09,6.90
2009,01,19,16,10,6.80
2009,01,19,16,11,6.80
2009,01,19,16,12,6.70
2009,01,19,16,13,6.60
2009,01,19,16,14,6.60
2009,01,19,16,15,6.50
2009,01,19,16,16,6.40
2009,01,19,16,17,6.40
2009,01,19,16,18,6.30
2009,01,19,16,19,6.30
2009,01,19,16,20,6.20
2009,01,19,16,21,6.20
2009,01,19,16,22,6.20
2009,01,19,16,23,6.10
2009,01,19,16,24,6.10
2009,01,19,16,25,6.10
2009,01,19,16,26,6.10
2009,01,19,16,27,6.10
2009,01,19,16,28,6.10
2009,01,19,16,29,6.00
2009,01,19,16,30,6.00
2009,01,19,16,31,5.90
2009,01,19,16,32,5.90
2009,01,19,16,33,5.80
2009,01,19,16,34,5.80
2009,01,19,16,35,5.70
2009,01,19,16,36,5.60
2009,01,19,16,37,5.60
2009,01,19,16,38,5.50
2009,01,19,16,39,5.40
2009,01,19,16,40,5.40
2009,01,19,16,41,5.30
2009,01,19,16,42,5.30
2009,01,19,16,43,5.30
2009,01,19,16,44,5.20
2009,01,19,16,45,5.20
2009,01,19,16,46,5.10
2009,01,19,16,47,5.10
2009,01,19,16,48,5.00
2009,01,19,16,49,4.90
2009,01,19,16,50,4.80
2009,01,19,16,51,4.70
2009,01,19,16,52,4.60
2009,01,19,16,53,4.50
2009,01,19,16,54,4.40
2009,01,19,16,55,4.30
2009,01,19,16,56,4.30
2009,01,19,16,57,4.20
2009,01,19,16,58,4.20
2009,01,19,16,59,4.20
2009,01,19,17,00,4.10
2009,01,19,17,01,4.10
2009,01,19,17,02,4.10
2009,01,19,17,03,4.10
2009,01,19,17,04,4.00
2009,01,19,17,05,3.90
2009,01,19,17,06,3.90
2009,01,19,17,07,3.80
2009,01,19,17,08,3.80
2009,01,19,17,09,3.70
2009,01,19,17,10,3.70
2009,01,19,17,11,3.70
2009,01,19,17,12,3.60
2009,01,19,17,13,3.60
2009,01,19,17,14,3.50
2009,01,19,17,15,3.50
2009,01,19,17,16,3.40
2009,01,19,17,17,3.40
2009,01,19,17,18,3.40
2009,01,19,17,19,3.30
2009,01,19,17,20,3.30
2009,01,19,17,21,3.30
2009,01,19,17,22,3.20
2009,01,19,17,23,3.10
2009,01,19,17,24,3.10
2009,01,19,17,25,3.00
2009,01,19,17,26,3.00
2009,01,19,17,27,2.90
2009,01,19,17,28,2.90
2009,01,19,17,29,2.90
2009,01,19,17,30,2.80
2009,01,19,17,31,2.80
2009,01,19,17,32,2.80
2009,01,19,17,33,2.70
2009,01,19,17,34,2.70
2009,01,19,17,35,2.70
2009,01,19,17,36,2.60
2009,01,19,17,37,2.60
2009,01,19,17,38,2.60
2009,01,19,17,39,2.50
2009,01,19,17,40,2.50
2009,01,19,17,41,2.40
2009,01,19,17,42,2.40
2009,01,19,17,43,2.30
2009,01,19,17,44,2.30
2009,01,19,17,45,2.30
2009,01,19,17,46,2.30
2009,01,19,17,47,2.20
2009,01,19,17,48,2.20
2009,01,19,17,49,2.20
2009,01,19,17,50,2.10
2009,01,19,17,51,2.10
2009,01,19,17,52,2.10
2009,01,19,17,53,2.10
2009,01,19,17,54,2.00
2009,01,19,17,55,2.00
2009,01,19,17,56,1.90
2009,01,19,17,57,1.80